| time (UTC) | temp F | wind direction | speed MPH | gust MPH | rain 1hr in | rain 24hr in | rain mn in | humidity % | barometer mb |
| 20260831101804 | 77 | 190 | 3.0 | 6.0 | 0.00 | 0.00 | 0.00 | 61 | 1016.9 |
| 20260831101304 | 77 | 196 | 3.0 | 6.0 | 0.00 | 0.00 | 0.00 | 62 | 1017.1 |
| 20260831100804 | 77 | 192 | 3.0 | 6.0 | 0.00 | 0.00 | 0.00 | 63 | 1017.1 |
| 20260831100304 | 76 | 189 | 3.0 | 6.0 | 0.00 | 0.00 | 0.00 | 63 | 1017.1 |
| 20260831095804 | 76 | 190 | 3.0 | 7.0 | 0.00 | 0.00 | 0.00 | 64 | 1017.2 |
| 20260831095306 | 76 | 191 | 2.0 | 7.0 | 0.00 | 0.00 | 0.00 | 64 | 1017.2 |
| 20260831094804 | 76 | 198 | 2.0 | 5.0 | 0.00 | 0.00 | 0.00 | 66 | 1017.2 |
| 20260831094304 | 75 | 189 | 2.0 | 5.0 | 0.00 | 0.00 | 0.00 | 66 | 1017.4 |
| 20260831093804 | 75 | 192 | 2.0 | 5.0 | 0.00 | 0.00 | 0.00 | 67 | 1017.4 |
| 20260831093304 | 75 | 208 | 2.0 | 5.0 | 0.00 | 0.00 | 0.00 | 67 | 1017.4 |
| 20260831092805 | 75 | 181 | 2.0 | 5.0 | 0.00 | 0.00 | 0.00 | 68 | 1017.4 |
| 20260831091804 | 74 | 179 | 2.0 | 5.0 | 0.00 | 0.00 | 0.00 | 68 | 1017.4 |
| 20260831091304 | 74 | 274 | 2.0 | 5.0 | 0.00 | 0.00 | 0.00 | 69 | 1017.6 |
| 20260831090804 | 73 | 204 | 2.0 | 5.0 | 0.00 | 0.00 | 0.00 | 69 | 1017.6 |
| 20260831090304 | 73 | 337 | 2.0 | 2.0 | 0.00 | 0.00 | 0.00 | 70 | 1017.6 |
| 20260831085803 | 72 | 338 | 2.0 | 3.0 | 0.00 | 0.00 | 0.00 | 71 | 1017.6 |
| 20260831085306 | 72 | 337 | 2.0 | 5.0 | 0.00 | 0.00 | 0.00 | 72 | 1017.6 |
| 20260831084805 | 71 | 352 | 2.0 | 5.0 | 0.00 | 0.00 | 0.00 | 74 | 1017.6 |
| 20260831083804 | 70 | 188 | 2.0 | 3.0 | 0.00 | 0.00 | 0.00 | 75 | 1017.6 |
| 20260831083304 | 69 | 188 | 2.0 | 3.0 | 0.00 | 0.00 | 0.00 | 75 | 1017.6 |
| 20260831082804 | 69 | 196 | 2.0 | 2.0 | 0.00 | 0.00 | 0.00 | 76 | 1017.6 |
| 20260831082306 | 69 | 195 | 2.0 | 3.0 | 0.00 | 0.00 | 0.00 | 77 | 1017.6 |
| 20260831081303 | 68 | 195 | 2.0 | 3.0 | 0.00 | 0.00 | 0.00 | 77 | 1017.6 |
| 20260831080804 | 68 | 326 | 2.0 | 5.0 | 0.00 | 0.00 | 0.00 | 77 | 1017.6 |
| 20260831080305 | 67 | 2 | 2.0 | 5.0 | 0.00 | 0.00 | 0.00 | 79 | 1017.6 |
| 20260831075804 | 67 | 7 | 2.0 | 5.0 | 0.00 | 0.00 | 0.00 | 79 | 1017.6 |
| 20260831075306 | 67 | 5 | 2.0 | 3.0 | 0.00 | 0.00 | 0.00 | 81 | 1017.6 |
| 20260831074803 | 66 | 6 | 2.0 | 5.0 | 0.00 | 0.00 | 0.00 | 82 | 1017.6 |
| 20260831074303 | 66 | 6 | 1.0 | 5.0 | 0.00 | 0.00 | 0.00 | 82 | 1017.6 |
| 20260831073803 | 65 | 8 | 1.0 | 5.0 | 0.00 | 0.00 | 0.00 | 84 | 1017.6 |
| 20260831073303 | 65 | 41 | 1.0 | 3.0 | 0.00 | 0.00 | 0.00 | 86 | 1017.6 |
| 20260831072804 | 65 | 13 | 1.0 | 3.0 | 0.00 | 0.00 | 0.00 | 86 | 1017.7 |
| 20260831072306 | 64 | 14 | 0.0 | 3.0 | 0.00 | 0.00 | 0.00 | 86 | 1017.7 |
| 20260831071804 | 64 | 244 | 1.0 | 3.0 | 0.00 | 0.00 | 0.00 | 87 | 1017.7 |
| 20260831071305 | 64 | 243 | 1.0 | 3.0 | 0.00 | 0.00 | 0.00 | 87 | 1017.6 |
| 20260831070804 | 63 | 268 | 2.0 | 3.0 | 0.00 | 0.00 | 0.00 | 88 | 1017.6 |
| 20260831070303 | 63 | 282 | 2.0 | 5.0 | 0.00 | 0.00 | 0.00 | 89 | 1017.6 |
| 20260831065804 | 63 | 323 | 2.0 | 5.0 | 0.00 | 0.00 | 0.00 | 90 | 1017.7 |
| 20260831065306 | 62 | 7 | 2.0 | 5.0 | 0.00 | 0.00 | 0.00 | 90 | 1017.7 |
| 20260831064804 | 62 | 14 | 1.0 | 5.0 | 0.00 | 0.00 | 0.00 | 91 | 1017.7 |
| 20260831064304 | 62 | 4 | 0.0 | 3.0 | 0.00 | 0.00 | 0.00 | 91 | 1017.7 |
| 20260831063803 | 62 | 286 | 0.0 | 3.0 | 0.00 | 0.00 | 0.00 | 91 | 1017.7 |
| 20260831063303 | 62 | 286 | 0.0 | 3.0 | 0.00 | 0.00 | 0.00 | 91 | 1017.7 |
| 20260831062804 | 62 | 291 | 0.0 | 2.0 | 0.00 | 0.00 | 0.00 | 91 | 1017.7 |
| 20260831062306 | 62 | 291 | 0.0 | 2.0 | 0.00 | 0.00 | 0.00 | 91 | 1017.7 |
| 20260831061804 | 62 | 292 | 0.0 | 2.0 | 0.00 | 0.00 | 0.00 | 91 | 1017.7 |
| 20260831061304 | 62 | 292 | 0.0 | 3.0 | 0.00 | 0.00 | 0.00 | 91 | 1017.7 |
| 20260831060304 | 62 | 292 | 2.0 | 3.0 | 0.00 | 0.00 | 0.00 | 91 | 1017.7 |
| 20260831055306 | 62 | 315 | 1.0 | 3.0 | 0.00 | 0.00 | 0.00 | 91 | 1017.6 |
| 20260831054804 | 62 | 343 | 1.0 | 2.0 | 0.00 | 0.00 | 0.00 | 91 | 1017.6 |
| 20260831053805 | 62 | 346 | 1.0 | 2.0 | 0.00 | 0.00 | 0.00 | 91 | 1017.6 |
| 20260831053304 | 62 | 348 | 1.0 | 2.0 | 0.00 | 0.00 | 0.00 | 91 | 1017.6 |
| 20260831052804 | 62 | 348 | 1.0 | 5.0 | 0.00 | 0.00 | 0.00 | 91 | 1017.6 |
| 20260831052306 | 62 | 348 | 0.0 | 5.0 | 0.00 | 0.00 | 0.00 | 90 | 1017.6 |
| 20260831051804 | 62 | 275 | 0.0 | 5.0 | 0.00 | 0.00 | 0.00 | 90 | 1017.6 |
| 20260831051304 | 62 | 265 | 0.0 | 2.0 | 0.00 | 0.00 | 0.00 | 90 | 1017.4 |
| 20260831050805 | 62 | 265 | 1.0 | 2.0 | 0.00 | 0.00 | 0.00 | 90 | 1017.4 |
| 20260831050304 | 62 | 265 | 1.0 | 2.0 | 0.00 | 0.00 | 0.00 | 90 | 1017.4 |
| 20260831044804 | 62 | 321 | 2.0 | 3.0 | 0.00 | 0.00 | 0.00 | 90 | 1017.4 |
| 20260831044304 | 62 | 320 | 1.0 | 5.0 | 0.00 | 0.00 | 0.00 | 90 | 1017.2 |
| 20260831043804 | 63 | 296 | 2.0 | 5.0 | 0.00 | 0.00 | 0.00 | 89 | 1017.2 |
| 20260831043304 | 63 | 341 | 2.0 | 3.0 | 0.00 | 0.00 | 0.00 | 89 | 1017.2 |
| 20260831042804 | 63 | 342 | 2.0 | 3.0 | 0.00 | 0.00 | 0.00 | 89 | 1017.1 |
| 20260831042306 | 63 | 272 | 1.0 | 5.0 | 0.00 | 0.00 | 0.00 | 89 | 1017.1 |
| 20260831041805 | 63 | 300 | 1.0 | 5.0 | 0.00 | 0.00 | 0.00 | 89 | 1017.1 |
| 20260831041304 | 63 | 305 | 0.0 | 5.0 | 0.00 | 0.00 | 0.00 | 88 | 1017.3 |
| 20260831040804 | 63 | 305 | 1.0 | 3.0 | 0.00 | 0.00 | 0.00 | 88 | 1017.3 |
| 20260831040304 | 63 | 305 | 1.0 | 3.0 | 0.00 | 0.00 | 0.00 | 88 | 1017.3 |
| 20260831035805 | 63 | 305 | 2.0 | 3.0 | 0.00 | 0.00 | 0.00 | 88 | 1017.2 |
| 20260831035307 | 63 | 289 | 2.0 | 2.0 | 0.00 | 0.00 | 0.00 | 87 | 1017.2 |
| 20260831034304 | 63 | 312 | 2.0 | 5.0 | 0.00 | 0.00 | 0.00 | 87 | 1017.4 |
| 20260831033804 | 63 | 358 | 2.0 | 5.0 | 0.00 | 0.00 | 0.00 | 87 | 1017.4 |
| 20260831033304 | 63 | 357 | 1.0 | 5.0 | 0.00 | 0.00 | 0.00 | 87 | 1017.4 |
| 20260831032805 | 63 | 323 | 1.0 | 3.0 | 0.00 | 0.00 | 0.00 | 87 | 1017.5 |
| 20260831032306 | 63 | 286 | 0.0 | 3.0 | 0.00 | 0.00 | 0.00 | 87 | 1017.5 |
| 20260831031804 | 64 | 293 | 1.0 | 3.0 | 0.00 | 0.00 | 0.00 | 87 | 1017.5 |
| 20260831031304 | 64 | 260 | 1.0 | 1.0 | 0.00 | 0.00 | 0.00 | 87 | 1017.5 |
| 20260831030805 | 64 | 260 | 1.0 | 3.0 | 0.00 | 0.00 | 0.00 | 86 | 1017.5 |
| 20260831025306 | 64 | 1 | 1.0 | 2.0 | 0.00 | 0.00 | 0.00 | 86 | 1017.6 |
| 20260831024804 | 64 | 1 | 1.0 | 3.0 | 0.00 | 0.00 | 0.00 | 86 | 1017.6 |
| 20260831024304 | 64 | 1 | 0.0 | 3.0 | 0.00 | 0.00 | 0.00 | 86 | 1017.5 |
| 20260831023804 | 64 | 297 | 1.0 | 3.0 | 0.00 | 0.00 | 0.00 | 86 | 1017.5 |
| 20260831023304 | 64 | 343 | 1.0 | 2.0 | 0.00 | 0.00 | 0.00 | 86 | 1017.5 |
| 20260831022805 | 64 | 343 | 1.0 | 2.0 | 0.00 | 0.00 | 0.00 | 85 | 1017.5 |
| 20260831022306 | 64 | 345 | 0.0 | 2.0 | 0.00 | 0.00 | 0.00 | 86 | 1017.5 |
| 20260831020804 | 65 | 284 | 1.0 | 5.0 | 0.00 | 0.00 | 0.00 | 85 | 1017.6 |
| 20260831020305 | 65 | 284 | 1.0 | 5.0 | 0.00 | 0.00 | 0.00 | 85 | 1017.6 |
| 20260831015805 | 65 | 356 | 2.0 | 2.0 | 0.00 | 0.00 | 0.00 | 85 | 1017.6 |
| 20260831015306 | 65 | 356 | 2.0 | 3.0 | 0.00 | 0.00 | 0.00 | 85 | 1017.6 |
| 20260831014304 | 65 | 357 | 1.0 | 3.0 | 0.00 | 0.00 | 0.00 | 84 | 1017.6 |
| 20260831013804 | 65 | 311 | 1.0 | 3.0 | 0.00 | 0.00 | 0.00 | 84 | 1017.6 |
| 20260831013304 | 65 | 327 | 0.0 | 3.0 | 0.00 | 0.00 | 0.00 | 84 | 1017.6 |
| 20260831012306 | 65 | 319 | 1.0 | 2.0 | 0.00 | 0.00 | 0.00 | 83 | 1017.6 |
| 20260831011805 | 65 | 319 | 1.0 | 2.0 | 0.00 | 0.00 | 0.00 | 83 | 1017.6 |
| 20260831011304 | 66 | 319 | 1.0 | 3.0 | 0.00 | 0.00 | 0.00 | 83 | 1017.6 |
| 20260831010805 | 66 | 295 | 1.0 | 3.0 | 0.00 | 0.00 | 0.00 | 82 | 1017.6 |
| 20260831010304 | 66 | 295 | 1.0 | 3.0 | 0.00 | 0.00 | 0.00 | 82 | 1017.6 |
| 20260831005805 | 66 | 295 | 1.0 | 3.0 | 0.00 | 0.00 | 0.00 | 82 | 1017.6 |
| 20260831005306 | 66 | 295 | 0.0 | 3.0 | 0.00 | 0.00 | 0.00 | 81 | 1017.6 |
| 20260831004804 | 66 | 324 | 0.0 | 2.0 | 0.00 | 0.00 | 0.00 | 81 | 1017.6 |
| 20260831003805 | 67 | 324 | 1.0 | 3.0 | 0.00 | 0.00 | 0.00 | 80 | 1017.7 |
| 20260831002805 | 67 | 324 | 1.0 | 3.0 | 0.00 | 0.00 | 0.00 | 80 | 1017.7 |
| 20260831002306 | 67 | 317 | 1.0 | 2.0 | 0.00 | 0.00 | 0.00 | 79 | 1017.7 |
| 20260831001805 | 67 | 316 | 1.0 | 3.0 | 0.00 | 0.00 | 0.00 | 79 | 1017.7 |
| 20260831001305 | 67 | 316 | 0.0 | 3.0 | 0.00 | 0.00 | 0.00 | 79 | 1017.8 |
| 20260831000805 | 67 | 282 | 0.0 | 2.0 | 0.00 | 0.00 | 0.00 | 79 | 1017.8 |
| 20260831000304 | 67 | 282 | 0.0 | 2.0 | 0.00 | 0.00 | 0.00 | 79 | 1017.8 |
| 20260830235805 | 67 | 282 | 1.0 | 2.0 | 0.00 | 0.00 | 0.00 | 78 | 1017.8 |
| 20260830235306 | 67 | 282 | 1.0 | 2.0 | 0.00 | 0.00 | 0.00 | 78 | 1017.8 |
| 20260830234804 | 67 | 282 | 1.0 | 3.0 | 0.00 | 0.00 | 0.00 | 78 | 1017.8 |
| 20260830234304 | 68 | 295 | 0.0 | 3.0 | 0.00 | 0.00 | 0.00 | 78 | 1017.7 |
| 20260830233805 | 68 | 295 | 1.0 | 3.0 | 0.00 | 0.00 | 0.00 | 77 | 1017.7 |
| 20260830233304 | 68 | 338 | 1.0 | 2.0 | 0.00 | 0.00 | 0.00 | 77 | 1017.7 |
| 20260830231305 | 68 | 346 | 0.0 | 2.0 | 0.00 | 0.00 | 0.00 | 77 | 1017.8 |
| 20260830230804 | 68 | 346 | 1.0 | 2.0 | 0.00 | 0.00 | 0.00 | 77 | 1017.8 |
| 20260830230304 | 68 | 346 | 2.0 | 3.0 | 0.00 | 0.00 | 0.00 | 77 | 1017.8 |
| 20260830225802 | 68 | 346 | 1.0 | 5.0 | 0.00 | 0.00 | 0.00 | 77 | 1017.7 |
| 20260830224803 | 68 | 348 | 0.0 | 2.0 | 0.00 | 0.00 | 0.00 | 76 | 1017.7 |
| 20260830224303 | 68 | 341 | 0.0 | 2.0 | 0.00 | 0.00 | 0.00 | 77 | 1017.8 |
| 20260830223802 | 68 | 341 | 0.0 | 2.0 | 0.00 | 0.00 | 0.00 | 77 | 1017.8 |
| 20260830222306 | 69 | 341 | 0.0 | 2.0 | 0.00 | 0.00 | 0.00 | 76 | 1017.8 |
| 20260830221803 | 69 | 341 | 0.0 | 2.0 | 0.00 | 0.00 | 0.00 | 75 | 1017.8 |
| 20260830220859 | 69 | 341 | 0.0 | 2.0 | 0.00 | 0.00 | 0.00 | 74 | 1017.8 |
| 20260830220304 | 69 | 341 | 0.0 | 2.0 | 0.00 | 0.00 | 0.00 | 74 | 1017.8 |
| 20260830215802 | 69 | 341 | 0.0 | 2.0 | 0.00 | 0.00 | 0.00 | 74 | 1017.8 |
| 20260830215305 | 69 | 341 | 0.0 | 2.0 | 0.00 | 0.00 | 0.00 | 74 | 1017.8 |
| 20260830214803 | 69 | 341 | 0.0 | 3.0 | 0.00 | 0.00 | 0.00 | 74 | 1017.8 |
| 20260830214303 | 69 | 341 | 0.0 | 3.0 | 0.00 | 0.00 | 0.00 | 73 | 1017.7 |
| 20260830213802 | 70 | 354 | 0.0 | 3.0 | 0.00 | 0.00 | 0.00 | 73 | 1017.7 |
| 20260830213303 | 70 | 357 | 0.0 | 1.0 | 0.00 | 0.00 | 0.00 | 72 | 1017.7 |
| 20260830212802 | 70 | 357 | 0.0 | 2.0 | 0.00 | 0.00 | 0.00 | 72 | 1017.6 |
| 20260830212305 | 70 | 357 | 0.0 | 2.0 | 0.00 | 0.00 | 0.00 | 72 | 1017.6 |
| 20260830211803 | 70 | 357 | 0.0 | 2.0 | 0.00 | 0.00 | 0.00 | 71 | 1017.6 |
| 20260830211303 | 71 | 357 | 0.0 | 2.0 | 0.00 | 0.00 | 0.00 | 71 | 1017.6 |
| 20260830210303 | 71 | 357 | 0.0 | 2.0 | 0.00 | 0.00 | 0.00 | 70 | 1017.6 |
| 20260830205305 | 71 | 357 | 0.0 | 2.0 | 0.00 | 0.00 | 0.00 | 70 | 1017.4 |
| 20260830204802 | 71 | 357 | 1.0 | 2.0 | 0.00 | 0.00 | 0.00 | 70 | 1017.4 |
| 20260830204303 | 71 | 357 | 1.0 | 2.0 | 0.00 | 0.00 | 0.00 | 70 | 1017.3 |
| 20260830203803 | 71 | 357 | 1.0 | 2.0 | 0.00 | 0.00 | 0.00 | 69 | 1017.3 |
| 20260830202802 | 72 | 357 | 1.0 | 2.0 | 0.00 | 0.00 | 0.00 | 68 | 1017.3 |
| 20260830202305 | 72 | 357 | 0.0 | 3.0 | 0.00 | 0.00 | 0.00 | 68 | 1017.3 |
| 20260830201803 | 72 | 357 | 1.0 | 3.0 | 0.00 | 0.00 | 0.00 | 68 | 1017.3 |
| 20260830201302 | 72 | 357 | 1.0 | 3.0 | 0.00 | 0.00 | 0.00 | 68 | 1017.2 |
| 20260830200803 | 72 | 357 | 1.0 | 2.0 | 0.00 | 0.00 | 0.00 | 67 | 1017.2 |
| 20260830200303 | 72 | 0 | 1.0 | 2.0 | 0.00 | 0.00 | 0.00 | 67 | 1017.2 |
| 20260830195803 | 73 | 0 | 1.0 | 2.0 | 0.00 | 0.00 | 0.00 | 67 | 1017.2 |
| 20260830195305 | 73 | 0 | 0.0 | 2.0 | 0.00 | 0.00 | 0.00 | 67 | 1017.2 |
| 20260830194803 | 73 | 0 | 1.0 | 2.0 | 0.00 | 0.00 | 0.00 | 66 | 1017.2 |
| 20260830194303 | 73 | 0 | 2.0 | 2.0 | 0.00 | 0.00 | 0.00 | 65 | 1017.2 |
| 20260830193802 | 74 | 0 | 2.0 | 5.0 | 0.00 | 0.00 | 0.00 | 64 | 1017.2 |
| 20260830192802 | 74 | 2 | 2.0 | 6.0 | 0.00 | 0.00 | 0.00 | 63 | 1017.1 |
| 20260830191803 | 74 | 339 | 2.0 | 6.0 | 0.00 | 0.00 | 0.00 | 62 | 1017.1 |
| 20260830191303 | 74 | 67 | 2.0 | 6.0 | 0.00 | 0.00 | 0.00 | 62 | 1017.0 |
| 20260830190303 | 75 | 0 | 2.0 | 5.0 | 0.00 | 0.00 | 0.00 | 62 | 1017.0 |
| 20260830185803 | 75 | 9 | 2.0 | 6.0 | 0.00 | 0.00 | 0.00 | 62 | 1016.9 |
| 20260830185306 | 75 | 161 | 2.0 | 6.0 | 0.00 | 0.00 | 0.00 | 61 | 1016.9 |
| 20260830184303 | 75 | 358 | 2.0 | 6.0 | 0.00 | 0.00 | 0.00 | 62 | 1016.8 |
| 20260830183803 | 75 | 356 | 2.0 | 6.0 | 0.00 | 0.00 | 0.00 | 62 | 1016.8 |
| 20260830183303 | 75 | 16 | 2.0 | 5.0 | 0.00 | 0.00 | 0.00 | 61 | 1016.8 |
| 20260830182803 | 75 | 199 | 2.0 | 6.0 | 0.00 | 0.00 | 0.00 | 62 | 1016.5 |
| 20260830182306 | 75 | 190 | 2.0 | 6.0 | 0.00 | 0.00 | 0.00 | 62 | 1016.5 |
| 20260830181304 | 76 | 23 | 2.0 | 7.0 | 0.00 | 0.00 | 0.00 | 62 | 1016.3 |
| 20260830180802 | 76 | 8 | 2.0 | 7.0 | 0.00 | 0.00 | 0.00 | 62 | 1016.3 |
| 20260830180303 | 76 | 40 | 2.0 | 6.0 | 0.00 | 0.00 | 0.00 | 62 | 1016.3 |
| 20260830175802 | 77 | 93 | 2.0 | 6.0 | 0.00 | 0.00 | 0.00 | 62 | 1016.2 |
| 20260830175305 | 77 | 10 | 2.0 | 6.0 | 0.00 | 0.00 | 0.00 | 61 | 1016.2 |
| 20260830174803 | 77 | 6 | 2.0 | 6.0 | 0.00 | 0.00 | 0.00 | 61 | 1016.2 |
| 20260830174302 | 77 | 359 | 2.0 | 6.0 | 0.00 | 0.00 | 0.00 | 60 | 1016.1 |
| 20260830173803 | 78 | 125 | 2.0 | 6.0 | 0.00 | 0.00 | 0.00 | 59 | 1016.1 |
| 20260830173303 | 78 | 23 | 2.0 | 6.0 | 0.00 | 0.00 | 0.00 | 59 | 1016.1 |
| 20260830172803 | 79 | 14 | 2.0 | 6.0 | 0.00 | 0.00 | 0.00 | 58 | 1016.1 |
| 20260830172306 | 79 | 3 | 2.0 | 6.0 | 0.00 | 0.00 | 0.00 | 57 | 1016.1 |
| 20260830171303 | 81 | 359 | 2.0 | 6.0 | 0.00 | 0.00 | 0.00 | 55 | 1016.1 |
| 20260830170303 | 83 | 55 | 2.0 | 5.0 | 0.00 | 0.00 | 0.00 | 54 | 1016.1 |
| 20260830165803 | 84 | 358 | 2.0 | 5.0 | 0.00 | 0.00 | 0.00 | 50 | 1016.1 |
| 20260830165305 | 85 | 86 | 2.0 | 5.0 | 0.00 | 0.00 | 0.00 | 51 | 1016.1 |
| 20260830164803 | 86 | 175 | 2.0 | 5.0 | 0.00 | 0.00 | 0.00 | 50 | 1016.1 |
| 20260830163803 | 86 | 188 | 2.0 | 5.0 | 0.00 | 0.00 | 0.00 | 48 | 1016.1 |
| 20260830162306 | 86 | 15 | 2.0 | 5.0 | 0.00 | 0.00 | 0.00 | 45 | 1016.0 |
| 20260830161803 | 86 | 359 | 2.0 | 8.0 | 0.00 | 0.00 | 0.00 | 46 | 1016.0 |
| 20260830161303 | 86 | 0 | 2.0 | 9.0 | 0.00 | 0.00 | 0.00 | 45 | 1016.1 |
| 20260830160803 | 86 | 338 | 2.0 | 9.0 | 0.00 | 0.00 | 0.00 | 45 | 1016.1 |
| 20260830160303 | 86 | 76 | 2.0 | 5.0 | 0.00 | 0.00 | 0.00 | 49 | 1016.1 |
| 20260830155804 | 86 | 354 | 2.0 | 6.0 | 0.00 | 0.00 | 0.00 | 45 | 1016.1 |
| 20260830155306 | 87 | 299 | 2.0 | 8.0 | 0.00 | 0.00 | 0.00 | 44 | 1016.1 |
| 20260830154804 | 87 | 66 | 2.0 | 8.0 | 0.00 | 0.00 | 0.00 | 44 | 1016.1 |
| 20260830154303 | 87 | 168 | 2.0 | 6.0 | 0.00 | 0.00 | 0.00 | 44 | 1016.1 |
| 20260830153305 | 87 | 159 | 2.0 | 7.0 | 0.00 | 0.00 | 0.00 | 43 | 1016.1 |
| 20260830152803 | 87 | 204 | 3.0 | 7.0 | 0.00 | 0.00 | 0.00 | 44 | 1016.1 |
| 20260830152305 | 87 | 48 | 3.0 | 8.0 | 0.00 | 0.00 | 0.00 | 43 | 1016.1 |
| 20260830151804 | 87 | 176 | 3.0 | 8.0 | 0.00 | 0.00 | 0.00 | 43 | 1016.1 |
| 20260830151303 | 87 | 142 | 3.0 | 8.0 | 0.00 | 0.00 | 0.00 | 43 | 1016.2 |
| 20260830150803 | 87 | 197 | 3.0 | 10.0 | 0.00 | 0.00 | 0.00 | 44 | 1016.2 |
| 20260830150304 | 88 | 227 | 2.0 | 10.0 | 0.00 | 0.00 | 0.00 | 43 | 1016.2 |
| 20260830145804 | 88 | 198 | 2.0 | 8.0 | 0.00 | 0.00 | 0.00 | 42 | 1016.1 |
| 20260830145306 | 88 | 150 | 2.0 | 8.0 | 0.00 | 0.00 | 0.00 | 43 | 1016.1 |
| 20260830144304 | 88 | 184 | 2.0 | 7.0 | 0.00 | 0.00 | 0.00 | 42 | 1016.1 |
| 20260830143803 | 88 | 160 | 2.0 | 6.0 | 0.00 | 0.00 | 0.00 | 43 | 1016.1 |
| 20260830143303 | 88 | 154 | 2.0 | 8.0 | 0.00 | 0.00 | 0.00 | 42 | 1016.1 |
| 20260830142804 | 88 | 187 | 2.0 | 8.0 | 0.00 | 0.00 | 0.00 | 43 | 1016.1 |
| 20260830142306 | 87 | 201 | 2.0 | 8.0 | 0.00 | 0.00 | 0.00 | 44 | 1016.1 |
| 20260830141804 | 87 | 196 | 3.0 | 8.0 | 0.00 | 0.00 | 0.00 | 42 | 1016.1 |
| 20260830141303 | 87 | 224 | 3.0 | 8.0 | 0.00 | 0.00 | 0.00 | 43 | 1016.2 |
| 20260830140803 | 87 | 244 | 3.0 | 9.0 | 0.00 | 0.00 | 0.00 | 43 | 1016.2 |
| 20260830140304 | 88 | 54 | 2.0 | 9.0 | 0.00 | 0.00 | 0.00 | 42 | 1016.2 |
| 20260830135306 | 88 | 184 | 2.0 | 6.0 | 0.00 | 0.00 | 0.00 | 43 | 1016.2 |
| 20260830134803 | 87 | 205 | 2.0 | 6.0 | 0.00 | 0.00 | 0.00 | 44 | 1016.2 |
| 20260830134305 | 87 | 177 | 2.0 | 6.0 | 0.00 | 0.00 | 0.00 | 44 | 1016.3 |
| 20260830133805 | 87 | 194 | 2.0 | 6.0 | 0.00 | 0.00 | 0.00 | 44 | 1016.3 |
| 20260830133303 | 87 | 182 | 2.0 | 6.0 | 0.00 | 0.00 | 0.00 | 44 | 1016.3 |
| 20260830132803 | 87 | 167 | 2.0 | 7.0 | 0.00 | 0.00 | 0.00 | 44 | 1016.4 |
| 20260830132306 | 87 | 239 | 2.0 | 7.0 | 0.00 | 0.00 | 0.00 | 43 | 1016.4 |
| 20260830131804 | 87 | 168 | 2.0 | 6.0 | 0.00 | 0.00 | 0.00 | 43 | 1016.4 |
| 20260830131303 | 87 | 356 | 2.0 | 6.0 | 0.00 | 0.00 | 0.00 | 44 | 1016.5 |
| 20260830130804 | 86 | 276 | 2.0 | 6.0 | 0.00 | 0.00 | 0.00 | 46 | 1016.5 |
| 20260830130304 | 86 | 208 | 2.0 | 6.0 | 0.00 | 0.00 | 0.00 | 45 | 1016.5 |
| 20260830125803 | 87 | 298 | 2.0 | 6.0 | 0.00 | 0.00 | 0.00 | 45 | 1016.6 |
| 20260830125306 | 87 | 305 | 2.0 | 6.0 | 0.00 | 0.00 | 0.00 | 46 | 1016.6 |
| 20260830124803 | 87 | 214 | 2.0 | 6.0 | 0.00 | 0.00 | 0.00 | 44 | 1016.6 |
| 20260830124304 | 87 | 301 | 2.0 | 6.0 | 0.00 | 0.00 | 0.00 | 43 | 1016.7 |
| 20260830123803 | 87 | 192 | 2.0 | 5.0 | 0.00 | 0.00 | 0.00 | 47 | 1016.7 |
| 20260830123303 | 87 | 40 | 2.0 | 5.0 | 0.00 | 0.00 | 0.00 | 46 | 1016.7 |
| 20260830122803 | 86 | 57 | 2.0 | 5.0 | 0.00 | 0.00 | 0.00 | 44 | 1016.7 |
| 20260830122306 | 86 | 155 | 2.0 | 5.0 | 0.00 | 0.00 | 0.00 | 46 | 1016.7 |
| 20260830121805 | 86 | 355 | 2.0 | 5.0 | 0.00 | 0.00 | 0.00 | 48 | 1016.7 |
| 20260830121304 | 85 | 169 | 2.0 | 5.0 | 0.00 | 0.00 | 0.00 | 48 | 1016.8 |
| 20260830120803 | 85 | 350 | 2.0 | 6.0 | 0.00 | 0.00 | 0.00 | 50 | 1016.8 |
| 20260830120303 | 85 | 158 | 2.0 | 6.0 | 0.00 | 0.00 | 0.00 | 48 | 1016.8 |
| 20260830115804 | 85 | 187 | 2.0 | 5.0 | 0.00 | 0.00 | 0.00 | 48 | 1016.8 |
| 20260830115306 | 84 | 182 | 2.0 | 5.0 | 0.00 | 0.00 | 0.00 | 49 | 1016.8 |
| 20260830114803 | 84 | 182 | 2.0 | 5.0 | 0.00 | 0.00 | 0.00 | 51 | 1016.8 |
| 20260830114303 | 84 | 173 | 2.0 | 3.0 | 0.00 | 0.00 | 0.00 | 50 | 1016.9 |
| 20260830113804 | 84 | 172 | 2.0 | 3.0 | 0.00 | 0.00 | 0.00 | 56 | 1016.9 |
| 20260830113303 | 83 | 171 | 2.0 | 3.0 | 0.00 | 0.00 | 0.00 | 57 | 1016.9 |
| 20260830112804 | 83 | 171 | 2.0 | 3.0 | 0.00 | 0.00 | 0.00 | 57 | 1017.0 |
| 20260830111803 | 81 | 171 | 2.0 | 5.0 | 0.00 | 0.00 | 0.00 | 60 | 1017.0 |
| 20260830111304 | 81 | 170 | 2.0 | 3.0 | 0.00 | 0.00 | 0.00 | 60 | 1017.0 |
| 20260830110804 | 81 | 171 | 2.0 | 3.0 | 0.00 | 0.00 | 0.00 | 60 | 1017.0 |
| 20260830110304 | 80 | 171 | 2.0 | 3.0 | 0.00 | 0.00 | 0.00 | 62 | 1017.0 |
| 20260830105804 | 80 | 171 | 2.0 | 3.0 | 0.00 | 0.00 | 0.00 | 61 | 1017.2 |
| 20260830105305 | 80 | 166 | 2.0 | 5.0 | 0.00 | 0.00 | 0.00 | 63 | 1017.2 |
| 20260830104804 | 79 | 205 | 2.0 | 5.0 | 0.00 | 0.00 | 0.00 | 64 | 1017.2 |
| 20260830104304 | 79 | 219 | 2.0 | 5.0 | 0.00 | 0.00 | 0.00 | 64 | 1017.3 |
| 20260830103804 | 79 | 176 | 3.0 | 6.0 | 0.00 | 0.00 | 0.00 | 68 | 1017.3 |
| 20260830103304 | 78 | 195 | 3.0 | 6.0 | 0.00 | 0.00 | 0.00 | 66 | 1017.3 |
| 20260830102803 | 78 | 194 | 3.0 | 6.0 | 0.00 | 0.00 | 0.00 | 66 | 1017.6 |